New version


Hourly Weather Belgorod

Today, 24 July, Saturday

Time Temperature Precipitation Wind Pressure Humidity
00:00 +17°C° 0 mm 2 mps 744 mmHg 67%
01:00 +17°C° 0 mm 2 mps 744 mmHg 68%
02:00 +16°C° 0 mm 2 mps 744 mmHg 71%
03:00 +16°C° 0 mm 2 mps 744 mmHg 72%
04:00 +16°C° 0 mm 2 mps 744 mmHg 73%
05:00 +16°C° 0 mm 2 mps 744 mmHg 74%
06:00 +18°C° 0 mm 2 mps 744 mmHg 68%
07:00 +20°C° 0 mm 2 mps 744 mmHg 61%
08:00 +22°C° 0 mm 3 mps 745 mmHg 54%
09:00 +25°C° 0 mm 3 mps 745 mmHg 49%
10:00 +26°C° 0 mm 3 mps 745 mmHg 44%
11:00 +28°C° 0 mm 4 mps 745 mmHg 39%
12:00 +28°C° 0 mm 4 mps 745 mmHg 41%
13:00 +27°C° 0 mm 3 mps 745 mmHg 42%
14:00 +27°C° 0 mm 3 mps 745 mmHg 44%
15:00 +26°C° 0 mm 3 mps 745 mmHg 47%
16:00 +26°C° 0 mm 2 mps 745 mmHg 50%
17:00 +25°C° 0 mm 2 mps 746 mmHg 54%
18:00 +24°C° 0.1 mm 2 mps 746 mmHg 58%
19:00 +23°C° 0.1 mm 2 mps 746 mmHg 62%
20:00 +21°C° 0.1 mm 2 mps 746 mmHg 66%
21:00 +20°C° 0 mm 2 mps 747 mmHg 65%
22:00 +20°C° 0 mm 2 mps 747 mmHg 65%
23:00 +19°C° 0 mm 2 mps 747 mmHg 64%

Tomorrow, 25 July, Sunday

Time Temperature Precipitation Wind Pressure Humidity
00:00 +19°C° 0 mm 2 mps 747 mmHg 64%
01:00 +19°C° 0 mm 2 mps 748 mmHg 64%
02:00 +18°C° 0 mm 2 mps 748 mmHg 63%
03:00 +18°C° 0 mm 2 mps 748 mmHg 63%
04:00 +19°C° 0 mm 2 mps 748 mmHg 63%
05:00 +19°C° 0 mm 2 mps 749 mmHg 63%
06:00 +20°C° 0 mm 2 mps 749 mmHg 57%
07:00 +22°C° 0 mm 3 mps 749 mmHg 51%
08:00 +24°C° 0 mm 3 mps 750 mmHg 45%
09:00 +25°C° 0 mm 3 mps 750 mmHg 41%
10:00 +27°C° 0 mm 3 mps 750 mmHg 38%
11:00 +28°C° 0 mm 3 mps 750 mmHg 35%
12:00 +28°C° 0 mm 3 mps 750 mmHg 34%
13:00 +28°C° 0 mm 3 mps 750 mmHg 34%
14:00 +29°C° 0 mm 2 mps 750 mmHg 33%
15:00 +28°C° 0 mm 3 mps 750 mmHg 34%
16:00 +28°C° 0 mm 3 mps 750 mmHg 36%
17:00 +28°C° 0 mm 3 mps 750 mmHg 37%
18:00 +26°C° 0 mm 3 mps 750 mmHg 41%
19:00 +24°C° 0 mm 3 mps 750 mmHg 45%
20:00 +22°C° 0 mm 3 mps 750 mmHg 49%
21:00 +21°C° 0 mm 3 mps 751 mmHg 52%
22:00 +20°C° 0 mm 3 mps 751 mmHg 54%
23:00 +19°C° 0 mm 3 mps 751 mmHg 57%

Day after tomorrow, 26 July, Monday

Time Temperature Precipitation Wind Pressure Humidity
00:00 +18°C° 0 mm 3 mps 751 mmHg 58%
01:00 +18°C° 0 mm 3 mps 751 mmHg 58%
02:00 +18°C° 0 mm 2 mps 751 mmHg 59%
03:00 +18°C° 0 mm 2 mps 751 mmHg 59%
04:00 +18°C° 0 mm 2 mps 751 mmHg 58%
05:00 +18°C° 0 mm 2 mps 751 mmHg 58%
06:00 +20°C° 0 mm 2 mps 752 mmHg 53%
07:00 +23°C° 0 mm 2 mps 752 mmHg 49%
08:00 +24°C° 0 mm 2 mps 752 mmHg 45%
09:00 +26°C° 0 mm 3 mps 752 mmHg 41%
10:00 +27°C° 0 mm 3 mps 752 mmHg 37%
11:00 +28°C° 0 mm 3 mps 752 mmHg 34%
12:00 +29°C° 0 mm 3 mps 751 mmHg 32%
13:00 +29°C° 0 mm 3 mps 751 mmHg 31%
14:00 +30°C° 0 mm 3 mps 751 mmHg 30%
15:00 +30°C° 0 mm 3 mps 751 mmHg 31%
16:00 +29°C° 0 mm 4 mps 751 mmHg 32%
17:00 +29°C° 0 mm 4 mps 751 mmHg 34%
18:00 +27°C° 0 mm 3 mps 751 mmHg 39%
19:00 +25°C° 0 mm 3 mps 751 mmHg 45%
20:00 +22°C° 0 mm 3 mps 751 mmHg 51%
21:00 +21°C° 0 mm 3 mps 751 mmHg 53%
22:00 +20°C° 0 mm 3 mps 751 mmHg 56%
23:00 +19°C° 0 mm 3 mps 751 mmHg 58%

27 July, Tuesday

Time Temperature Precipitation Wind Pressure Humidity
00:00 +19°C° 0 mm 3 mps 751 mmHg 58%
01:00 +18°C° 0 mm 3 mps 751 mmHg 59%
02:00 +18°C° 0 mm 3 mps 751 mmHg 59%
03:00 +18°C° 0 mm 3 mps 751 mmHg 58%
04:00 +18°C° 0 mm 3 mps 751 mmHg 58%
05:00 +17°C° 0 mm 3 mps 751 mmHg 58%
06:00 +20°C° 0 mm 3 mps 751 mmHg 53%
07:00 +22°C° 0 mm 3 mps 751 mmHg 48%
08:00 +26°C° 0 mm 4 mps 751 mmHg 43%
09:00 +27°C° 0 mm 4 mps 751 mmHg 40%
10:00 +29°C° 0 mm 4 mps 751 mmHg 37%
11:00 +30°C° 0 mm 4 mps 750 mmHg 34%
12:00 +31°C° 0 mm 3 mps 750 mmHg 32%
13:00 +33°C° 0 mm 3 mps 750 mmHg 30%
14:00 +33°C° 0 mm 3 mps 749 mmHg 28%
15:00 +33°C° 0 mm 3 mps 749 mmHg 29%
16:00 +33°C° 0 mm 3 mps 749 mmHg 29%
17:00 +31°C° 0 mm 3 mps 749 mmHg 30%
18:00 +29°C° 0 mm 3 mps 749 mmHg 36%
19:00 +27°C° 0 mm 3 mps 749 mmHg 41%
20:00 +25°C° 0 mm 3 mps 749 mmHg 47%
21:00 +23°C° 0 mm 2 mps 749 mmHg 53%
22:00 +21°C° 0 mm 2 mps 749 mmHg 58%
23:00 +21°C° 0 mm 1 mps 749 mmHg 64%

28 July, Wednesday

Time Temperature Precipitation Wind Pressure Humidity
00:00 +21°C° 0 mm 1 mps 749 mmHg 66%
01:00 +20°C° 0 mm 1 mps 749 mmHg 69%
02:00 +20°C° 0 mm 1 mps 749 mmHg 71%
03:00 +20°C° 0 mm 1 mps 749 mmHg 70%
04:00 +20°C° 0 mm 1 mps 749 mmHg 70%
05:00 +20°C° 0 mm 1 mps 749 mmHg 69%
06:00 +23°C° 0 mm 2 mps 749 mmHg 62%
07:00 +25°C° 0 mm 2 mps 748 mmHg 54%
08:00 +27°C° 0 mm 3 mps 748 mmHg 47%
09:00 +29°C° 0 mm 3 mps 748 mmHg 42%
10:00 +30°C° 0 mm 3 mps 748 mmHg 37%
11:00 +33°C° 0 mm 3 mps 748 mmHg 32%
12:00 +32°C° 0 mm 4 mps 747 mmHg 36%
13:00 +30°C° 0 mm 4 mps 747 mmHg 40%
14:00 +29°C° 0 mm 5 mps 747 mmHg 44%
15:00 +27°C° 0.2 mm 4 mps 747 mmHg 57%
16:00 +24°C° 0.2 mm 3 mps 747 mmHg 69%
17:00 +21°C° 0.2 mm 2 mps 747 mmHg 81%
18:00 +21°C° 0 mm 2 mps 747 mmHg 79%
19:00 +21°C° 0 mm 2 mps 746 mmHg 77%
20:00 +21°C° 0 mm 3 mps 746 mmHg 75%
21:00 +21°C° 0.1 mm 3 mps 745 mmHg 76%
22:00 +21°C° 0.1 mm 3 mps 745 mmHg 78%
23:00 +21°C° 0.1 mm 3 mps 745 mmHg 79%

29 July, Thursday

Time Temperature Precipitation Wind Pressure Humidity
00:00 +21°C° 0.2 mm 3 mps 744 mmHg 80%
01:00 +20°C° 0.2 mm 4 mps 744 mmHg 80%
02:00 +20°C° 0.2 mm 5 mps 744 mmHg 81%
03:00 +20°C° 0 mm 4 mps 743 mmHg 82%
04:00 +20°C° 0 mm 4 mps 743 mmHg 83%
05:00 +19°C° 0 mm 4 mps 743 mmHg 84%
06:00 +21°C° 0.2 mm 4 mps 743 mmHg 78%
07:00 +23°C° 0.2 mm 4 mps 743 mmHg 72%
08:00 +26°C° 0.2 mm 4 mps 743 mmHg 67%
09:00 +28°C° 0 mm 4 mps 743 mmHg 60%
10:00 +30°C° 0 mm 4 mps 743 mmHg 53%
11:00 +33°C° 0 mm 5 mps 743 mmHg 46%
12:00 +33°C° 0 mm 5 mps 742 mmHg 42%
13:00 +34°C° 0 mm 5 mps 742 mmHg 39%
14:00 +35°C° 0 mm 6 mps 742 mmHg 36%
15:00 +34°C° 0 mm 6 mps 742 mmHg 37%
16:00 +34°C° 0 mm 5 mps 742 mmHg 38%
17:00 +33°C° 0 mm 5 mps 742 mmHg 39%
18:00 +30°C° 0 mm 4 mps 742 mmHg 46%
19:00 +28°C° 0 mm 4 mps 742 mmHg 52%
20:00 +26°C° 0 mm 3 mps 743 mmHg 59%
21:00 +25°C° 0 mm 2 mps 743 mmHg 63%
22:00 +24°C° 0 mm 2 mps 743 mmHg 66%
23:00 +23°C° 0 mm 2 mps 743 mmHg 69%
Show more